This demonstration page uses our WeatherBlox Daily Observations layout. Learn more.

Left ArrowRight Arrow

40.92945, -100.16068

Hourly Observations for November 14, 2015

Temp ( °F °C ) Dew Point ( °F °C ) Humidity (%) Winds ( mph kmh ) Pressure ( in mb ) Visibility ( mi km ) Precip ( " mm )
12:15 am 00:15 Clear 31 -0.7 28 -2 91 91 N N/A 30.21 1023 10 16 N/A
12:35 am 00:35 Clear with Mist and Fog 29 -1.6 27 -3 90 90 N N/A 30.21 1023 5 8 N/A
12:55 am 00:55 Clear 30 -1.2 28 -2.5 91 91 ENE 3 6 30.18 1022 7 11 N/A
1:15 am 01:15 Clear 30 -1.1 28 -2.5 90 90 N N/A 30.18 1022 10 16 N/A
1:35 am 01:35 Clear 29 -1.7 26 -3.1 90 90 N N/A 30.21 1023 10 16 N/A
1:55 am 01:55 Clear 29 -1.8 26 -3.1 91 91 N N/A 30.21 1023 10 16 N/A
2:15 am 02:15 Clear 29 -1.5 27 -2.9 90 90 N N/A 30.18 1022 10 16 N/A
2:35 am 02:35 Clear 29 -1.6 27 -3 90 90 N N/A 30.21 1023 10 16 N/A
2:55 am 02:55 Clear 29 -1.7 26 -3.1 90 90 N N/A 30.21 1023 10 16 N/A
3:15 am 03:15 Clear 29 -1.8 26 -3.1 91 91 N N/A 30.21 1023 10 16 N/A
3:35 am 03:35 Clear 28 -2.1 26 -3.6 90 90 N N/A 30.21 1023 10 16 N/A
3:55 am 03:55 Clear 28 -2.2 26 -3.6 90 90 W 5 7 30.21 1023 10 16 N/A
4:15 am 04:15 Clear 27 -2.7 25 -4.1 90 90 NW 3 6 30.21 1023 10 16 N/A
4:35 am 04:35 Clear 27 -2.6 25 -4.1 90 90 S 7 11 30.21 1023 10 16 N/A
4:55 am 04:55 Clear 27 -2.7 24 -4.2 90 90 N N/A 30.21 1023 10 16 N/A
5:15 am 05:15 Clear 28 -2.5 25 -3.7 92 92 WSW 3 6 30.21 1023 10 16 N/A
5:35 am 05:35 Clear 29 -1.9 26 -3.2 91 91 W 6 9 30.21 1023 10 16 N/A
5:55 am 05:55 Clear 29 -1.8 26 -3.3 90 90 W 6 9 30.21 1023 10 16 N/A
6:15 am 06:15 Clear 26 -3.3 23 -4.9 89 89 W 5 7 30.21 1023 10 16 N/A
6:35 am 06:35 Clear 28 -2.5 25 -3.7 92 92 W 6 9 30.21 1023 10 16 N/A
6:55 am 06:55 Clear 28 -2.4 25 -3.7 91 91 W 5 7 30.21 1023 10 16 N/A
7:15 am 07:15 Clear 28 -2.3 25 -3.9 89 89 W 5 7 30.18 1022 10 16 N/A
7:35 am 07:35 Sunny 27 -3 24 -4.2 92 92 WNW 3 6 30.18 1022 10 16 N/A
7:55 am 07:55 Sunny 29 -1.9 26 -3.4 90 90 N N/A 30.21 1023 10 16 N/A
8:15 am 08:15 Sunny 30 -1.3 27 -2.6 91 91 N N/A 30.18 1022 10 16 N/A
8:35 am 08:35 Sunny 32 0.1 30 -1 92 92 N 3 6 30.18 1022 10 16 N/A
8:55 am 08:55 Sunny 34 1 32 -0.2 92 92 N N/A 30.18 1022 10 16 N/A
9:15 am 09:15 Sunny 37 2.6 33 0.5 86 86 N N/A 30.15 1021 10 16 N/A
9:35 am 09:35 Sunny 40 4.6 34 1.3 79 79 N N/A 30.12 1020 10 16 N/A
9:55 am 09:55 Sunny 43 6.3 36 2.1 75 75 N N/A 30.12 1020 10 16 N/A
10:15 am 10:15 Sunny 46 7.9 35 1.8 66 66 N N/A 30.09 1019 10 16 N/A
10:35 am 10:35 Sunny 49 9.6 36 2.4 61 61 N N/A 30.09 1019 10 16 N/A
10:55 am 10:55 Sunny 53 11.4 36 2.3 54 54 N N/A 30.06 1018 10 16 N/A
11:15 am 11:15 Sunny 55 12.8 36 2.1 48 48 SSW 3 6 30.06 1018 10 16 N/A
11:35 am 11:35 Sunny 57 13.8 35 1.7 44 44 SSW 5 7 30.00 1016 10 16 N/A
11:55 am 11:55 Sunny 59 15.1 33 0.3 37 37 S 3 6 30.00 1016 10 16 N/A
12:15 pm 12:15 Sunny 62 16.7 32 undefined 32 32 SSW 7 11 29.97 1015 10 16 N/A
12:35 pm 12:35 Sunny 63 17.4 32 -0.2 31 31 S 10 17 29.97 1015 10 16 N/A
12:55 pm 12:55 Sunny 64 17.5 32 -0.2 30 30 S 9 15 29.97 1015 10 16 N/A
1:15 pm 13:15 Sunny 64 17.8 32 undefined 30 30 SSW 10 17 29.97 1015 10 16 N/A
1:35 pm 13:35 Sunny 64 17.8 32 0.2 31 31 S 10 17 29.97 1015 10 16 N/A
1:55 pm 13:55 Sunny 64 18 33 0.6 31 31 S 8 13 29.97 1015 10 16 N/A
2:15 pm 14:15 Sunny 64 17.5 34 0.9 33 33 S 13 20 29.97 1015 10 16 N/A
2:35 pm 14:35 Sunny 63 17.2 36 2 36 36 S 12 19 29.97 1015 10 16 N/A
2:55 pm 14:55 Sunny 64 17.5 35 1.4 34 34 S 12 19 29.97 1015 10 16 N/A
3:15 pm 15:15 Sunny 63 17.2 35 1.4 35 35 S 10 17 29.94 1014 10 16 N/A
3:35 pm 15:35 Sunny 63 17.2 37 2.8 38 38 SSE 12 19 29.94 1014 10 16 N/A
3:55 pm 15:55 Sunny 62 16.5 37 2.5 39 39 S 13 20 29.94 1014 10 16 N/A
4:15 pm 16:15 Sunny 60 15.8 37 2.8 42 42 SSW 10 17 29.97 1015 10 16 N/A
4:35 pm 16:35 Sunny 59 15 37 2.9 44 44 S 8 13 29.97 1015 10 16 N/A
4:55 pm 16:55 Sunny 56 13.5 38 3.4 51 51 S 7 11 29.97 1015 10 16 N/A
5:15 pm 17:15 Sunny 52 11.2 38 3.2 58 58 S 8 13 30.00 1016 10 16 N/A
5:35 pm 17:35 Clear 50 10.1 37 2.8 61 61 S 6 9 30.00 1016 10 16 N/A
5:55 pm 17:55 Clear 51 10.7 37 2.6 58 58 S 5 7 30.00 1016 10 16 N/A
6:15 pm 18:15 Clear 49 9.3 36 2.1 61 61 S 7 11 30.03 1017 10 16 N/A
6:35 pm 18:35 Clear 48 8.9 36 2 62 62 S 5 7 30.03 1017 10 16 N/A
6:55 pm 18:55 Clear 49 9.6 37 2.5 62 62 SE 3 6 30.06 1018 10 16 N/A
7:15 pm 19:15 Clear 50 9.8 35 1.8 58 58 SSE 5 7 30.06 1018 10 16 N/A
7:35 pm 19:35 Clear 48 9 35 1.7 61 61 SSE 5 7 30.06 1018 10 16 N/A
7:55 pm 19:55 Clear 44 6.4 34 1 69 69 N N/A 30.09 1019 10 16 N/A
8:15 pm 20:15 Clear 38 3.5 32 undefined 78 78 ESE 3 6 30.09 1019 10 16 N/A
8:35 pm 20:35 Clear 38 3.5 33 0.5 81 81 ESE 3 6 30.06 1018 10 16 N/A
8:55 pm 20:55 Clear 39 3.8 34 1 82 82 SE 6 9 30.06 1018 10 16 N/A
9:15 pm 21:15 Clear 37 2.7 32 0.1 83 83 ESE 5 7 30.12 1020 10 16 N/A
9:35 pm 21:35 Clear 39 3.9 34 0.9 81 81 SE 3 6 30.09 1019 10 16 N/A
9:55 pm 21:55 Clear 41 5.2 35 1.4 77 77 SSE 8 13 30.09 1019 10 16 N/A
10:15 pm 22:15 Clear 45 7.4 37 2.6 72 72 S 9 15 30.09 1019 10 16 N/A
10:35 pm 22:35 Clear 46 7.8 37 2.7 70 70 SSE 7 11 30.06 1018 10 16 N/A
10:55 pm 22:55 Clear 46 7.6 37 2.5 70 70 SSE 6 9 30.06 1018 10 16 N/A
11:15 pm 23:15 Clear 45 7.4 37 2.5 71 71 SE 7 11 30.09 1019 10 16 N/A
11:35 pm 23:35 Clear 45 7.1 36 2.3 72 72 SE 7 11 30.09 1019 10 16 N/A
11:55 pm 23:55 Clear 45 7.2 37 2.5 72 72 SSE 7 11 30.09 1019 10 16 N/A

Powered by AerisWeather